Location: Cambridge (historical)
(38.6883°N, 119.0140°W)
Time: 20:57:30
(UTC+00:00)

XW-2C - Visible Passes

Search period start: 19 September 2021 00:00
Search period end: 29 September 2021 00:00
Orbit: 506 x 524 km, 97.5° (Epoch: 19 September)

Date Brightness Start Highest point End Pass type
(mag) Time Alt. Az. Time Alt. Az. Time Alt. Az.
21 Sep ? 13:13:59 10° NE 13:17:03 24° E 13:20:05 10° SSE visible
22 Sep ? 12:59:35 10° NE 13:01:54 16° E 13:04:12 10° SE visible
25 Sep ? 02:16:48 10° WSW 02:18:36 13° W 02:20:26 10° WNW visible
27 Sep ? 13:17:36 10° NE 13:20:48 26° E 13:23:56 10° SSE visible
28 Sep ? 13:03:07 10° NE 13:05:39 17° E 13:08:09 10° SE visible
